Location: Allen Generating Plant
(35.0740°N, 90.1490°W)
Time: 09:30:23
(UTC+00:00)

Explorer 11/Cluster Stage 4 - Pass Details

Date: 09 November 2024
Orbit: 464 x 1202 km, 28.8° (Epoch: 06 December)

Event Time Altitude Azimuth Distance (km) Brightness Sun altitude
Exits shadow 10:59:58 - 206° (SSW) 2,076 8.6 -18.6°
Reaches altitude 10° 11:01:09 10° 193° (SSW) 1,765 8.3 -18.4°
Maximum altitude 11:03:11 14° 163° (SSE) 1,491 8.3 -18.0°
Drops below altitude 10° 11:05:08 10° 131° (SE) 1,658 9.1 -17.6°
Sets 11:08:07 0° 103° (ESE) 2,489 11.0 -17.0°
